Tracking 30743 objects as of 20-Jun-2025
HD Live streaming from Space Station
objects crossing your sky now

STARLINK-32519

Track STARLINK-32519 now!
10-day predictions
STARLINK-32519 is classified as:


NORAD ID: 62317
Int'l Code: 2024-239S
Perigee: 453.6 km
Apogee: 454.9 km
Inclination: 53.2 °
Period: 93.5 minutes
Semi major axis: 6825 km
RCS: Unknown
Launch date: December 13, 2024
Source: United States (US)
Launch site: AIR FORCE WESTERN TEST RANGE (AFWTR)
Your satellite tracking list
Your tracking list is empty




NASA's NSSDC Master Catalog

Two Line Element Set (TLE):
1 62317U 24239S   25171.16636300  .00035309  00000-0  88740-3 0  9990
2 62317  53.1591 328.1118 0000886  98.6460 261.4645 15.39662350 29261
Source of the keplerian elements: AFSPC